• In Uzbekistan
  • List of Countries
  • For 7 days
  • Water Temperature
  • Satellite Maps
  • Weather Map
  • Weather Widgets
  • user-avatar
    Login

    Hourly Weather Karabalta

    Today, 22 September, Saturday

    Time Temperature Precipitation Wind Pressure Humidity
    00:00 +16°C° 0 mm 2 mps 696 mmHg 66%
    01:00 +16°C° 0 mm 2 mps 696 mmHg 67%
    02:00 +15°C° 0 mm 2 mps 696 mmHg 68%
    03:00 +15°C° 0 mm 2 mps 696 mmHg 69%
    04:00 +15°C° 0 mm 2 mps 696 mmHg 70%
    05:00 +15°C° 0 mm 2 mps 696 mmHg 71%
    06:00 +16°C° 0 mm 2 mps 696 mmHg 69%
    07:00 +18°C° 0 mm 1 mps 696 mmHg 67%
    08:00 +19°C° 0 mm 1 mps 697 mmHg 65%
    09:00 +20°C° 0.1 mm 1 mps 696 mmHg 61%
    10:00 +20°C° 0.1 mm 2 mps 696 mmHg 58%
    11:00 +23°C° 0.1 mm 2 mps 696 mmHg 54%
    12:00 +23°C° 0.2 mm 2 mps 696 mmHg 53%
    13:00 +23°C° 0.2 mm 2 mps 696 mmHg 51%
    14:00 +24°C° 0.2 mm 2 mps 696 mmHg 50%
    15:00 +24°C° 0.3 mm 2 mps 696 mmHg 52%
    16:00 +23°C° 0.3 mm 2 mps 696 mmHg 54%
    17:00 +23°C° 0.3 mm 1 mps 696 mmHg 55%
    18:00 +22°C° 0.4 mm 1 mps 696 mmHg 58%
    19:00 +21°C° 0.4 mm 1 mps 696 mmHg 62%
    20:00 +20°C° 0.4 mm 1 mps 696 mmHg 65%
    21:00 +19°C° 0.2 mm 1 mps 696 mmHg 65%
    22:00 +19°C° 0.2 mm 1 mps 696 mmHg 66%
    23:00 +18°C° 0.2 mm 1 mps 696 mmHg 66%

    Tomorrow, 23 September, Sunday

    Time Temperature Precipitation Wind Pressure Humidity
    00:00 +18°C° 0.2 mm 1 mps 696 mmHg 66%
    01:00 +18°C° 0.2 mm 1 mps 696 mmHg 65%
    02:00 +16°C° 0.2 mm 1 mps 696 mmHg 65%
    03:00 +16°C° 0.2 mm 1 mps 696 mmHg 65%
    04:00 +16°C° 0.2 mm 1 mps 696 mmHg 65%
    05:00 +16°C° 0.2 mm 1 mps 696 mmHg 65%
    06:00 +18°C° 0.1 mm 1 mps 696 mmHg 63%
    07:00 +19°C° 0.1 mm 1 mps 696 mmHg 61%
    08:00 +19°C° 0.1 mm 1 mps 696 mmHg 59%
    09:00 +21°C° 0.2 mm 1 mps 696 mmHg 57%
    10:00 +22°C° 0.2 mm 1 mps 696 mmHg 55%
    11:00 +23°C° 0.2 mm 2 mps 696 mmHg 53%
    12:00 +23°C° 0.4 mm 2 mps 695 mmHg 52%
    13:00 +24°C° 0.4 mm 2 mps 695 mmHg 51%
    14:00 +24°C° 0.4 mm 2 mps 695 mmHg 50%
    15:00 +23°C° 0.6 mm 2 mps 695 mmHg 52%
    16:00 +23°C° 0.6 mm 2 mps 695 mmHg 54%
    17:00 +21°C° 0.6 mm 3 mps 695 mmHg 56%
    18:00 +20°C° 0.4 mm 3 mps 695 mmHg 59%
    19:00 +19°C° 0.4 mm 3 mps 695 mmHg 62%
    20:00 +18°C° 0.4 mm 3 mps 695 mmHg 64%
    21:00 +18°C° 0.4 mm 3 mps 695 mmHg 64%
    22:00 +18°C° 0.4 mm 2 mps 695 mmHg 63%
    23:00 +17°C° 0.4 mm 2 mps 695 mmHg 63%

    Day after tomorrow, 24 September, Monday

    Time Temperature Precipitation Wind Pressure Humidity
    00:00 +17°C° 0.2 mm 2 mps 695 mmHg 63%
    01:00 +16°C° 0.2 mm 2 mps 695 mmHg 63%
    02:00 +16°C° 0.2 mm 2 mps 695 mmHg 62%
    03:00 +15°C° 0.1 mm 2 mps 695 mmHg 63%
    04:00 +15°C° 0.1 mm 2 mps 695 mmHg 64%
    05:00 +15°C° 0.1 mm 2 mps 695 mmHg 64%
    06:00 +15°C° 0.1 mm 2 mps 696 mmHg 63%
    07:00 +16°C° 0.1 mm 2 mps 696 mmHg 62%
    08:00 +17°C° 0.1 mm 2 mps 696 mmHg 61%
    09:00 +17°C° 0.2 mm 2 mps 696 mmHg 60%
    10:00 +18°C° 0.2 mm 2 mps 696 mmHg 59%
    11:00 +19°C° 0.2 mm 2 mps 697 mmHg 58%
    12:00 +19°C° 0.4 mm 3 mps 697 mmHg 56%
    13:00 +20°C° 0.4 mm 3 mps 696 mmHg 55%
    14:00 +20°C° 0.4 mm 3 mps 696 mmHg 54%
    15:00 +20°C° 0.1 mm 3 mps 697 mmHg 54%
    16:00 +19°C° 0.1 mm 2 mps 697 mmHg 54%
    17:00 +19°C° 0.1 mm 2 mps 697 mmHg 54%
    18:00 +18°C° 0 mm 2 mps 697 mmHg 56%
    19:00 +16°C° 0 mm 2 mps 698 mmHg 59%
    20:00 +15°C° 0 mm 2 mps 698 mmHg 62%
    21:00 +14°C° 0 mm 2 mps 698 mmHg 60%
    22:00 +14°C° 0 mm 2 mps 697 mmHg 59%
    23:00 +14°C° 0 mm 2 mps 697 mmHg 58%

    25 September, Tuesday

    Time Temperature Precipitation Wind Pressure Humidity
    00:00 +13°C° 0 mm 2 mps 697 mmHg 56%
    01:00 +13°C° 0 mm 2 mps 697 mmHg 53%
    02:00 +13°C° 0 mm 2 mps 696 mmHg 51%
    03:00 +13°C° 0 mm 2 mps 696 mmHg 48%
    04:00 +13°C° 0 mm 2 mps 696 mmHg 45%
    05:00 +12°C° 0 mm 2 mps 696 mmHg 42%
    06:00 +14°C° 0 mm 2 mps 696 mmHg 41%
    07:00 +15°C° 0 mm 2 mps 697 mmHg 40%
    08:00 +17°C° 0 mm 2 mps 697 mmHg 39%
    09:00 +18°C° 0 mm 2 mps 697 mmHg 36%
    10:00 +20°C° 0 mm 2 mps 697 mmHg 34%
    11:00 +23°C° 0 mm 2 mps 697 mmHg 31%
    12:00 +23°C° 0 mm 2 mps 697 mmHg 31%
    13:00 +24°C° 0 mm 2 mps 696 mmHg 32%
    14:00 +24°C° 0 mm 2 mps 696 mmHg 33%
    15:00 +24°C° 0 mm 2 mps 696 mmHg 33%
    16:00 +23°C° 0 mm 2 mps 696 mmHg 34%
    17:00 +22°C° 0 mm 1 mps 696 mmHg 34%
    18:00 +20°C° 0 mm 2 mps 696 mmHg 35%
    19:00 +18°C° 0 mm 2 mps 696 mmHg 37%
    20:00 +16°C° 0 mm 3 mps 696 mmHg 38%
    21:00 +16°C° 0 mm 3 mps 696 mmHg 38%
    22:00 +16°C° 0 mm 3 mps 696 mmHg 38%
    23:00 +14°C° 0 mm 3 mps 696 mmHg 38%

    26 September, Wednesday

    Time Temperature Precipitation Wind Pressure Humidity
    00:00 +14°C° 0 mm 3 mps 695 mmHg 38%
    01:00 +14°C° 0 mm 3 mps 695 mmHg 39%
    02:00 +14°C° 0 mm 3 mps 695 mmHg 39%
    03:00 +14°C° 0 mm 2 mps 695 mmHg 39%
    04:00 +14°C° 0 mm 2 mps 695 mmHg 39%
    05:00 +14°C° 0 mm 2 mps 695 mmHg 39%
    06:00 +15°C° 0 mm 2 mps 695 mmHg 38%
    07:00 +17°C° 0 mm 2 mps 695 mmHg 37%
    08:00 +18°C° 0 mm 2 mps 696 mmHg 37%
    09:00 +20°C° 0 mm 2 mps 696 mmHg 36%
    10:00 +21°C° 0 mm 2 mps 695 mmHg 35%
    11:00 +24°C° 0 mm 2 mps 695 mmHg 35%
    12:00 +25°C° 0 mm 2 mps 695 mmHg 34%
    13:00 +25°C° 0 mm 2 mps 695 mmHg 33%
    14:00 +26°C° 0 mm 2 mps 695 mmHg 32%
    15:00 +25°C° 0 mm 2 mps 695 mmHg 33%
    16:00 +24°C° 0 mm 1 mps 695 mmHg 34%
    17:00 +23°C° 0 mm 1 mps 695 mmHg 35%
    18:00 +22°C° 0 mm 1 mps 695 mmHg 36%
    19:00 +19°C° 0 mm 2 mps 695 mmHg 37%
    20:00 +17°C° 0 mm 2 mps 695 mmHg 38%
    21:00 +17°C° 0 mm 2 mps 695 mmHg 38%
    22:00 +17°C° 0 mm 2 mps 695 mmHg 38%
    23:00 +16°C° 0 mm 2 mps 695 mmHg 37%

    27 September, Thursday

    Time Temperature Precipitation Wind Pressure Humidity
    00:00 +16°C° 0 mm 2 mps 695 mmHg 37%
    01:00 +16°C° 0 mm 2 mps 694 mmHg 37%
    02:00 +15°C° 0 mm 2 mps 694 mmHg 37%
    03:00 +15°C° 0 mm 2 mps 694 mmHg 36%
    04:00 +15°C° 0 mm 2 mps 694 mmHg 35%
    05:00 +15°C° 0 mm 2 mps 695 mmHg 35%
    06:00 +16°C° 0 mm 1 mps 695 mmHg 34%
    07:00 +18°C° 0 mm 1 mps 695 mmHg 33%
    08:00 +20°C° 0 mm 1 mps 696 mmHg 33%
    09:00 +21°C° 0 mm 1 mps 696 mmHg 33%
    10:00 +23°C° 0 mm 1 mps 696 mmHg 33%
    11:00 +24°C° 0 mm 1 mps 696 mmHg 33%
    12:00 +25°C° 0 mm 1 mps 696 mmHg 33%
    13:00 +25°C° 0 mm 1 mps 696 mmHg 32%
    14:00 +26°C° 0 mm 2 mps 695 mmHg 32%
    15:00 +25°C° 0 mm 1 mps 696 mmHg 33%
    16:00 +24°C° 0 mm 1 mps 696 mmHg 34%
    17:00 +23°C° 0 mm 1 mps 696 mmHg 35%
    18:00 +22°C° 0 mm 1 mps 696 mmHg 36%
    19:00 +20°C° 0 mm 2 mps 696 mmHg 36%
    20:00 +19°C° 0 mm 2 mps 697 mmHg 37%
    21:00 +19°C° 0 mm 2 mps 697 mmHg 36%
    22:00 +18°C° 0 mm 2 mps 697 mmHg 36%
    23:00 +18°C° 0 mm 2 mps 697 mmHg 36%
    Show more